www.pogodaiklimat.ru

Погода и климат >> Архив погоды >> Россия >> Новгородская область >> Боровичи


ПОГОДА в Боровичах

  • Прогноз погоды в Боровичах
  • Монитор погоды в Боровичах
  • Климат города

АРХИВ ПОГОДЫ в Боровичах

Время (UTC), дата Ветер
(напр.,м/с)
 
Видим.   Явления Облачность Т
(С)
Тd
(С)
f
(%)
Тe
(С)
Тes
(С)
Комфортность P
(гПа)
Po
(гПа)
Тmin
(С)
Tmax
(С)
R
(мм)
R24
(мм)
S
(см)
09 18.06 Ю 1 20 км 8/4 600 м
[Cu med, cong Ac As]
+25.1 +12.6 46 +27 +32 жарко 1015.0 1004.7
12 18.06 Ю 2 20 км 8/8 600 м
[Cu med, cong]
+26.3 +12.1 41 +28 +30 жарко 1013.8 1003.7
15 18.06 З 2 20 км 8/5 600 м
[Cu med, cong Ac As]
+25.1 +14.4 51 +28 +29 жарко 1012.7 1002.5
18 18.06 штиль 0 20 км 8/6 600 м
[Sc Ci fib]
+21.8 +16.8 73 +26 +26 душно 1012.7 1002.4 +27.4
21 18.06 штиль 0 20 км 3/1 600 м
[Sc Ci fib]
+17.5 +14.3 81 +17 +17 1013.0 1002.5
00 19.06 ЮВ 1 20 км 3/0
[Ac As Ci fib]
+14.9 +14.0 94 +15 +15 1012.4 1001.8
03 19.06 З 2 20 км 9/5 600 м
[Sc Ac As]
+15.3 +14.1 93 +15 +15 1012.6 1002.1 +13.4
06 19.06 З 1 20 км {ливн. осадки} 9/1 600 м
[Sc Ac As]
+17.6 +15.1 85 +19 +22 1012.3 1001.9 +13.4 0.0
09 19.06 З 2 20 км 8/3 600 м
[Cu med, cong Ac As Ci fib]
+20.9 +11.0 53 +24 +30 комфорт 1011.1 1000.7
12 19.06 З 3 20 км 9/5 600 м
[Cu med, cong Ac cuf Ci sp]
+22.4 +11.8 51 +25 +28 комфорт 1009.1 998.8
15 19.06 З 2 20 км 9/3 600 м
[Cu med, cong Ac As]
+20.7 +11.2 54 +23 +24 комфорт 1007.0 996.7 0.0
18 19.06 ЮЗ 2 10 км слабый ливневой дождь 9/8 600 м
[Cb calv Ac As]
+19.3 +11.0 59 +21 +21 комфорт 1004.5 994.2 +22.5 0.0
21 19.06 З 2
{12}
20 км {ливн. осадки} 3/3 600 м
[Sc]
+12.0 +11.1 94 +11 +11 1006.1 995.5
00 20.06 З 2 20 км {ливн. осадки} 1/0
[Ac trans]
+11.7 +10.7 94 +10 +10 1006.2 995.6
03 20.06 З 3 20 км 1/1 300 м
[Sc]
+12.8 +10.7 87 +11 +12 1006.8 996.2 +11.1 3
06 20.06 З 3 20 км 4/4 600 м
[Cu hum]
+16.4 +11.0 70 +16 +20 1006.4 996.0 +11.1 3
09 20.06 З 4
{12}
20 км 6/6 600 м
[Cu med, cong]
+19.9 +8.6 48 +21 +25 комфорт 1006.2 995.9
12 20.06 СЗ 2
{12}
10 км гроза, ливневой дождь 10/10 400 м
[Cb cap]
+11.6 +10.7 94 +10 +10 1007.6 996.9
15 20.06 З 4
{10}
20 км {гроза, ливн. осадки} 4/3 600 м
[Sc Ac As]
+16.8 +9.4 62 +16 +18 1007.8 997.4 3
18 20.06 З 3 20 км {гроза, ливн. осадки} 8/8 300 м
[Sc]
+15.7 +6.6 55 +15 +15 1008.4 997.9 +20.5 3
21 20.06 штиль 0 20 км 8/8 600 м
[Sc]
+12.2 +9.6 84 +12 +12 1008.9 998.3
00 21.06 З 2 20 км 9/4 300 м
[Sc Ac As]
+12.9 +8.1 73 +12 +12 1008.7 998.1
03 21.06 З 1 20 км {ливн. осадки} 6/3 300 м
[Sc Ac As Ci fib]
+13.2 +7.5 68 +13 +14 1009.0 998.4 +12.2 0.0
06 21.06 З 2 20 км {ливн. осадки} 8/3 300 м
[Cu med, cong Ac As]
+16.6 +9.1 61 +17 +20 1009.3 998.8 +12.2 0.0
09 21.06 З 2 20 км 5/4 300 м
[Cu med, cong Cc]
+18.6 +10.1 58 +20 +28 1009.3 998.9
12 21.06 ЮЗ 2 20 км 9/9 900 м
[Sc diur, vesp Ac trans]
+18.1 +12.0 68 +19 +20 1009.7 999.3
15 21.06 Ю 1 20 км 10/10 750 м
[Sc]
+16.9 +13.6 81 +18 +18 1009.6 999.1
18 21.06 ЮВ 1 20 км 9/0
[Ac As Cs]
+17.4 +14.5 83 +18 +19 1008.5 998.1 +19.9
21 21.06 ЮВ 1 20 км 3/0
[Ac trans Ci fib]
+15.0 +13.9 93 +15 +15 1007.7 997.2
00 22.06 ЮВ 2 20 км 3/0
[Ac trans]
+16.1 +13.7 86 +16 +16 1005.7 995.3
03 22.06 ЮВ 2 20 км 9/0
[Ac lent Ci fib]
+17.9 +13.5 75 +18 +19 1003.8 993.5 +15.0
06 22.06 Ю 4 20 км 8/0
[Ac trans Ci fib]
+21.9 +14.3 62 +25 +29 комфорт 1002.0 991.8 +15.0
09 22.06 Ю 1 20 км 10/3 600 м
[Sc Ac und]
+23.8 +16.4 63 +27 +31 жарко 1002.0 991.9
12 22.06 З 2 20 км {ливн. осадки} 10/8 1110 м
[Sc Ac und]
+19.3 +15.0 76 +21 +22 комфорт 1003.8 993.5
15 22.06 ЮЗ 1 20 км в посл. час ливневой дождь 10/6 1000 м
[Sc Ac und]
+16.1 +11.2 73 +17 +17 1006.3 995.8 0.1
18 22.06 штиль 0 20 км {ливн. осадки} 4/0
[Ac trans Ci fib]
+15.8 +12.3 80 +16 +16 1007.4 996.9 +24.6 0.1
21 22.06 Ю 1 20 км 3/0
[Ci fib]
+12.8 +10.1 84 +13 +13 1009.1 998.5
00 23.06 штиль 0 20 км ясно +9.4 +8.3 93 +9 +9 1011.5 1000.8
03 23.06 штиль 0 20 км 4/0
[Ci fib]
+11.7 +8.4 80 +11 +13 1013.3 1002.6 +8.1
06 23.06 СЗ 1 20 км 5/1 600 м
[Cu hum Ac trans Ci fib]
+15.6 +8.5 63 +16 +23 1013.6 1003.0 +8.1
09 23.06 З 1 20 км 9/4 600 м
[Cu med, cong Ac trans Cs]
+18.1 +8.5 53 +19 +25 1014.1 1003.6
12 23.06 штиль 0 20 км 9/1 600 м
[Cu hum Ac As]
+19.4 +9.2 52 +20 +26 1013.1 1002.6
15 23.06 СЗ 1 10 км слабый ливневой дождь 10/4 300 м
[Cb calv Ac As]
+17.0 +11.0 68 +18 +19 1013.1 1002.6 0.0
18 23.06 СЗ 1 20 км {ливн. осадки} 10/0
[Ac und]
+15.7 +12.0 79 +16 +16 1011.3 1000.8 +19.5 0.0
21 23.06 В 1 10 км слабый ливневой дождь 10/10 1200 м
[Cb calv]
+13.4 +12.3 93 +14 +14 1011.1 1000.5
00 24.06 штиль 0 10 км слабый ливневой дождь 10/10 400 м
[Cb calv]
+12.9 +12.6 98 +12 +12 1009.4 998.8
03 24.06 В 1 10 км слабый ливневой дождь 10/8 300 м
[Cb calv Ac und]
+14.0 +13.2 95 +14 +14 1006.7 996.2 +12.7 8
06 24.06 В 1 20 км {ливн. осадки} 9/8 300 м
[Sc Ac trans]
+16.1 +14.4 90 +17 +18 1005.9 995.4 +12.7 8
09 24.06 ЮВ 2 20 км 8/4 600 м
[Sc Ac As]
+21.6 +16.7 74 +26 +30 душно 1005.0 994.8
12 24.06 ЮВ 2 10 км слабый ливневой дождь 10/5 600 м
[Cb calv Ac und]
+23.4 +17.7 70 +29 +31 душно 1006.0 995.9
15 24.06 Ю 4-10
{12}
20 км {ливн. осадки} 9/5 600 м
[Sc Ac As Ci fib]
+22.5 +14.5 61 +26 +27 жарко 1006.9 996.7 0.0
18 24.06 Ю 2
{10}
20 км {ливн. осадки} 8/3 600 м
[Sc Ac As Ci]
+16.5 +10.0 65 +17 +17 1010.6 1000.2 +25.0 0.0
21 24.06 ЮЗ 1 20 км 3/0
[Ac lent Ci fib]
+12.7 +9.2 79 +13 +13 1012.1 1001.5
00 25.06 штиль 0 20 км 3/0
[Ac lent Ci fib]
+9.5 +8.3 92 +9 +9 1013.5 1002.7
03 25.06 Ю 1 20 км 3/0
[Ac As]
+10.8 +8.9 88 +10 +12 1014.9 1004.2 +8.4
06 25.06 З 1 20 км 3/0
[Cs]
+16.7 +9.2 61 +18 +27 1015.4 1004.9 +8.4

 

Местоположение метеостанции Боровичи (Новгородская область, Россия): широта 58.42 долгота 33.90 высота над уровнем моря 89 м.

В архиве по умолчанию представлена погода в Боровичах за последнюю неделю. Архивные данные за месяц целиком и за предыдущие месяцы, начиная с января 2011 года, Вы можете получить, выбрав интересующий диапазон дат из раскрывающегося списка и нажав кнопку "Ввод!".


*Определитесь, кто Вы:
робот инопланетянин человек

Внимание! Время в таблицах - всемирное. Для получения местного времени необходимо прибавить поправку, которая в Боровичах равна 3 ч.

Смотрите также архив погоды в соседних городах и на ближайших метеорологических станциях:

Погода в Бологом (Тверская область, Россия) (61 км)
Погода в Валдае (Новгородская область, Россия) (61 км)
Погода в Охонах (Новгородская область, Россия) (79 км)
Погода в Крестцах (Новгородская область, Россия) (82 км)
Погода в Удомле (Тверская область, Россия) (89 км)
Погода в Вышнем Волочке (Тверская область, Россия) (106 км)
Погода в Демянске (Новгородская область, Россия) (120 км)
Погода в Ефимовской (Ленинградская область, Россия) (129 км)
Погода в Максатихе (Тверская область, Россия) (136 км)
Погода в Тихвине (Ленинградская область, Россия) (138 км)

Пояснения к столбцам:

Ветер - указаны скорость ветра в м/с - средняя за 10 мин, порывы в срок и между сроками (в фигурных скобках) и направление, откуда дует ветер: С - северный, СВ - северо-восточный, В - восточный, ЮВ - юго-восточный, Ю - южный, ЮЗ - юго-западный, З - западный, СЗ - северо-западный.
Видимость - горизонтальная дальность видимости в метрах или километрах. При видимости от 1 до 10 км при отсутствии осадков обычно наблюдается дымка, при ухудшении видимости до 1 км и менее - туман. В сухую погоду видимость может ухудшаться дымом, пылью или мглою.
Явления - указаны атмосферные явления, наблюдавшиеся в срок или в последний час перед сроком; фигурными скобками обозначены явления, наблюдавшиеся между сроками (за 1-3 часа до срока); квадратными скобками обозначены град или гололедные отложения с указанием их диаметра в мм.
Облачность - указаны через наклонную черту общая и нижняя облачность в баллах и высота нижней границы облаков в метрах; квадратными скобками обозначены формы облаков: Ci - перистые, Cs - перисто-слоистые, Cc - перисто-кучевые, Ac - высококучевые, As - высокослоистые, Sc - слоисто-кучевые, Ns - слоисто-дождевые, Cu - кучевые, Cb - кучево-дождевые. Подробнее классификацию облаков см. в Атласе облаков (PDF).
T - Температура воздуха - температура, измеренная на высоте 2 м над землей.
Td - Температура точки росы - температура, при понижении до которой содержащийся в воздухе водяной пар достигнет насыщения.
f - Относительная влажность воздуха - влажноcть воздуха, измеренная на высоте 2 м над землей.
Te - Эффективная температура - температура, которую ощущает одетый по сезону человек в тени. Характеристика душности погоды. При расчете учитывается влияние влажности воздуха и скорости ветра на теплоощущения человека.
Tes - Эффективная температура на солнце - температура, которую ощущает человек, с поправкой на солнечный нагрев. Характеристика знойности погоды. Зависит от высоты солнца над горизонтом, облачности и скорости ветра. Ночью, в пасмурную погоду, а также при ветре 12 м/с и более поправка равна нулю.
P - Атмосферное давление - приведенное к уровню моря атмосферное давление.
Po - Атмосферное давление - измеренное на уровне метеостанции атмосферное давление.
Tmin - Минимальная температура - минимум температуры воздуха на высоте 2 м над землей.
Tmax - Максимальная температура - максимум температуры воздуха на высоте 2 м над землей.
R - Количество осадков - Количество выпавших осадков за период времени, мм. При наведении курсора мыши на число - период времени, за который выпало указанное количество осадков.
R24 - Количество осадков - Количество выпавших осадков за 24 часа, мм.
S - Снежный покров - Высота снежного покрова, см. При наведении курсора мыши на число - состояние снежного покрова и степень покрытия местности в баллах.